Theta_e
344 344 345 344 342 344 345 344 345 344 342 342 341 336 332 340 338 340 338 336 337 336 339 338 335 334 328 334 331 331 325 332 331 329 335 334 329 330 328 325 326 334 327
342 345 346 343 342 344 345 345 343 342 342 343 340 337 334 333 340 333 333 334 332 334 335 338 339 337 336 329 334 336 332 324 325 329 333 334 333 327 325 325 327 325 324
344 344 344 345 344 344 344 343 343 342 344 342 338 337 337 334 342 335 334 334 335 333 333 334 336 336 335 335 337 338 332 329 326 325 328 331 333 331 328 323 326 329 325
344 345 346 345 346 346 344 343 343 342 342 338 336 336 330 335 332 333 333 334 334 339 337 336 336 337 336 335 334 334 338 339 334 332 332 327 326 327 325 322 326 334 336
347 346 347 346 345 343 343 342 343 342 341 339 335 332 331 332 334 333 333 335 336 336 338 338 337 337 338 338 335 335 334 338 340 339 333 335 334 333 330 326 324 325 325
345 345 346 345 346 344 343 342 342 342 341 341 337 332 333 333 334 332 336 339 339 340 338 338 338 340 340 338 338 338 335 333 335 339 340 339 336 330 333 333 333 334 335
345 345 344 345 347 344 343 342 343 344 342 337 329 331 333 333 333 336 335 335 335 336 333 332 334 337 338 337 339 338 334 335 336 335 338 340 340 339 338 339 338 336 333
346 344 344 343 347 345 343 343 343 344 342 332 332 333 335 336 334 337 337 336 332 333 329 326 324 324 331 337 338 334 331 333 335 334 336 337 338 339 339 339 339 339 340
347 346 344 344 345 344 344 343 344 345 343 336 330 334 336 336 337 334 336 334 331 330 329 328 324 324 327 328 325 322 321 324 330 330 329 329 329 331 334 336 337 337 336
347 346 345 342 345 345 345 342 341 343 343 334 332 330 334 335 336 338 336 335 332 332 331 330 328 328 326 324 322 321 321 320 322 323 323 323 321 319 316 316 318 320 325
348 346 344 345 344 345 346 342 342 343 343 334 330 331 333 335 336 338 338 338 334 333 332 332 330 328 329 329 328 326 323 325 328 329 328 325 323 322 322 320 317 316 316
343 341 344 344 345 346 346 344 342 342 343 336 324 329 331 336 337 338 339 338 338 337 334 333 332 331 329 329 329 329 328 329 329 330 328 325 325 324 324 325 321 319 318
342 338 343 344 346 344 346 346 340 339 341 336 332 326 329 333 329 330 334 336 337 337 335 333 331 332 331 330 329 328 329 329 329 330 330 326 326 326 324 325 327 327 324
342 339 343 345 347 347 347 348 341 339 339 337 332 322 324 331 330 330 332 335 334 334 333 332 331 330 331 332 330 329 329 328 328 329 330 329 327 326 326 325 325 326 327
343 340 343 346 345 345 347 347 341 335 336 335 334 325 321 325 329 329 327 331 334 332 332 332 332 329 330 330 331 331 330 330 329 328 330 330 328 327 327 327 326 325 324
347 340 343 347 345 345 345 347 344 335 332 330 331 327 322 322 322 325 326 328 331 333 332 332 330 328 329 329 328 329 330 330 329 329 330 328 328 327 327 326 325 325 324
347 344 339 343 346 343 344 346 346 338 332 328 325 325 324 323 323 322 321 326 328 330 333 333 330 330 330 330 329 328 328 328 328 326 326 327 329 329 328 328 328 326 322
346 347 341 340 344 344 345 347 346 340 333 331 325 323 324 325 324 324 323 321 323 325 331 330 332 330 330 329 329 329 328 325 325 326 327 326 327 329 329 328 325 323 322
346 347 347 339 340 342 342 347 346 342 333 330 328 325 323 323 325 325 325 324 323 325 326 330 332 326 329 329 328 329 327 325 327 329 328 327 327 328 328 326 323 320 318
345 346 347 345 337 339 339 346 346 344 341 336 336 337 338 336 329 325 326 326 325 324 327 327 332 331 325 328 329 329 331 331 330 329 328 328 325 324 325 322 321 321 319
344 346 345 347 341 336 338 342 346 346 346 345 344 344 343 342 341 338 327 327 328 328 329 330 333 332 330 329 330 333 331 330 329 327 326 328 327 326 327 326 324 320 318
344 345 346 345 347 340 335 336 343 346 347 347 348 348 347 345 344 343 337 329 327 330 332 335 334 333 329 329 331 332 331 329 329 329 327 328 328 328 327 326 322 319 319
343 344 346 346 345 345 342 334 338 344 347 347 348 349 349 349 348 346 344 342 332 330 331 335 336 335 333 330 333 332 330 329 330 330 327 328 328 327 324 323 320 319 317
343 343 345 346 346 345 344 344 340 338 343 347 347 348 350 350 350 349 345 342 337 332 331 335 335 335 334 333 331 331 329 327 326 327 326 326 325 324 322 320 318 317 315
344 344 344 345 346 347 346 344 346 347 341 343 346 348 349 348 348 348 344 343 339 336 333 331 335 335 334 333 333 333 329 326 327 327 326 323 321 321 319 318 316 313 309
345 346 346 346 346 346 347 347 347 348 348 346 345 345 347 348 349 345 342 343 341 338 334 333 335 333 334 332 331 329 328 329 328 323 321 319 318 318 316 314 314 311 310
Wind_Speed
5 2 1 3 1 2 2 4 1 3 1 3 3 3 6 4 3 6 3 5 3 2 3 1 2 4 4 5 4 4 2 4 4 4 4 4 3 3 4 4 4 3 3
5 3 3 2 2 1 2 4 5 3 1 1 1 2 5 2 2 5 4 4 5 1 2 2 4 2 3 4 5 4 4 4 5 5 5 5 5 4 4 5 4 4 4
4 2 4 4 3 4 3 2 4 3 1 1 1 4 4 1 1 4 2 2 3 2 2 1 2 1 4 4 3 5 4 4 4 5 6 6 7 6 5 6 6 6 5
8 6 5 4 6 6 7 5 5 7 4 6 4 4 5 3 1 1 1 0 1 2 1 2 2 4 4 2 4 5 6 8 6 6 6 6 7 7 6 6 8 8 8
11 9 6 5 6 5 5 5 5 6 5 7 7 4 1 5 2 2 2 1 1 1 2 3 0 0 3 4 2 2 4 5 9 10 8 8 8 8 7 6 8 9 9
11 12 9 8 6 6 7 6 6 5 5 6 8 4 1 4 3 2 2 1 0 1 1 4 5 3 3 4 4 2 3 5 6 8 9 10 9 10 10 10 11 11 11
12 11 9 11 8 9 8 7 7 8 7 9 3 3 2 2 3 3 4 3 2 2 1 1 4 6 5 4 3 2 2 3 7 6 6 8 11 10 10 11 12 12 12
14 11 12 10 9 9 9 10 8 8 7 6 2 4 3 2 5 4 3 1 2 3 4 3 0 3 3 2 3 3 2 1 2 4 4 4 5 7 8 10 12 12 12
18 15 13 13 13 11 11 11 12 8 7 5 4 5 3 3 6 8 5 3 5 5 5 7 7 5 2 1 1 2 3 3 4 3 2 1 3 5 7 8 9 10 11
21 18 16 16 15 15 13 11 11 10 7 6 5 8 8 5 6 5 9 8 6 5 3 3 4 6 6 6 5 4 5 7 8 7 6 5 3 3 5 5 6 7 8
26 25 22 19 17 17 14 12 11 9 8 7 8 6 9 10 10 6 7 8 11 9 6 5 3 2 3 4 5 6 7 7 6 6 7 8 7 6 5 6 7 8 7
23 23 23 22 20 19 16 14 13 12 10 9 8 10 8 6 7 8 8 9 10 10 11 10 10 8 6 4 2 2 3 3 2 3 5 6 7 8 7 6 6 6 7
24 25 25 24 21 19 16 15 16 14 12 10 8 11 10 10 8 8 7 6 6 10 11 10 11 14 13 11 10 7 6 4 3 4 6 7 8 9 9 8 8 8 9
25 25 24 23 22 20 20 18 17 16 14 13 11 11 12 12 11 10 9 7 6 6 9 10 11 10 14 16 16 14 13 11 10 10 9 10 11 10 11 11 11 12 12
27 27 26 24 24 23 22 20 19 19 18 15 14 12 13 13 13 11 11 10 8 7 6 6 6 7 7 9 10 15 18 18 16 16 15 17 16 16 15 15 15 15 15
29 30 30 27 26 25 24 23 22 21 21 19 18 15 12 12 12 12 12 12 11 9 8 6 5 6 6 7 9 11 13 14 15 17 19 19 19 19 19 18 17 18 20
32 33 34 34 31 29 27 27 26 25 25 23 21 19 16 13 12 13 13 14 13 13 10 9 9 8 8 8 8 8 9 10 11 15 19 20 21 22 21 20 19 22 22
34 34 35 37 36 34 30 30 29 29 29 27 24 23 20 18 16 16 14 15 15 13 12 12 11 10 10 10 12 11 10 10 12 16 18 16 19 18 17 20 22 21 20
38 37 37 38 40 40 37 33 32 32 31 29 27 24 23 22 21 20 18 17 17 15 15 14 11 14 14 13 12 13 13 16 19 20 19 18 18 21 22 23 22 20 21
42 41 40 39 39 41 41 38 36 34 33 32 30 27 26 25 23 24 23 20 19 19 19 18 16 15 16 17 16 16 14 15 19 18 19 19 19 19 18 18 19 21 22
46 43 42 41 40 42 45 44 42 40 38 35 34 31 31 28 26 25 26 23 22 21 21 19 18 14 16 18 18 14 20 19 23 24 21 17 13 12 13 18 21 20 19
49 48 47 45 44 45 47 47 44 43 42 38 38 34 34 32 32 30 27 26 27 27 26 21 18 18 19 18 19 18 19 20 20 21 22 17 14 14 14 16 19 18 18
49 52 51 50 49 47 46 47 46 46 46 44 41 38 38 36 33 35 31 31 31 29 29 27 24 22 21 19 20 22 23 20 19 16 19 15 12 16 16 16 17 16 19
49 52 54 53 52 49 47 47 47 47 49 48 44 42 41 37 35 34 31 37 33 30 29 28 25 23 21 20 21 24 21 22 21 19 16 14 14 15 14 14 19 21 21
47 51 54 55 55 52 49 48 48 48 51 52 48 45 40 37 33 33 28 30 29 30 28 24 23 21 20 21 21 22 19 18 17 13 12 11 12 13 15 17 14 16 18
46 46 51 54 56 56 54 52 51 51 51 52 52 48 43 38 34 30 25 28 28 29 25 24 21 19 18 17 14 14 11 10 12 11 8 9 12 15 16 15 13 15 15
Wind_Direction
196 200 191 188 215 301 318 11 336 299 1 101 44 75 43 40 58 90 79 33 52 60 210 190 173 198 205 209 193 206 226 223 230 223 214 215 227 247 278 284 278 276 298
199 238 236 214 269 238 289 342 354 353 23 303 293 92 37 0 200 121 76 33 357 162 95 208 226 222 211 218 215 227 242 240 239 238 238 235 246 263 275 268 271 282 288
208 258 246 244 265 275 258 313 347 319 332 274 336 324 325 305 11 170 117 61 46 101 112 93 54 261 249 247 242 228 230 240 244 250 246 245 249 250 264 274 266 276 285
236 253 267 275 292 280 273 293 337 349 320 337 305 288 330 202 35 170 167 250 121 162 125 97 90 77 49 330 261 253 241 241 245 252 247 251 265 260 263 267 266 269 280
240 245 259 280 299 286 269 301 303 340 319 309 327 326 320 174 170 163 206 191 224 265 271 250 260 71 26 19 7 248 257 241 235 242 249 257 261 267 261 264 267 270 273
239 243 243 266 278 266 277 282 289 314 313 306 310 287 145 171 200 233 96 132 45 221 262 230 222 260 281 320 322 313 257 262 263 255 245 254 255 266 275 275 272 274 276
238 228 246 260 273 273 285 278 294 301 312 319 282 261 202 166 197 140 139 90 69 115 63 139 214 242 253 269 298 344 324 295 249 254 265 259 260 260 264 269 268 267 267
236 244 249 262 269 279 282 280 285 294 300 325 217 191 195 196 202 190 187 97 89 119 85 50 317 244 231 213 265 285 297 255 233 235 245 259 266 268 272 274 270 269 271
242 256 248 248 255 270 277 278 270 284 284 298 229 189 188 200 190 218 223 185 138 125 102 67 72 80 111 124 17 35 52 77 88 94 106 199 269 275 275 272 271 273 275
241 249 245 241 251 262 275 284 258 268 274 288 241 215 212 202 203 209 221 215 199 178 156 101 83 86 85 88 86 80 85 84 84 76 61 37 358 307 281 277 277 276 274
246 252 244 237 247 257 268 270 264 268 269 273 239 237 226 229 232 228 232 224 227 224 223 216 209 167 124 103 95 89 103 107 87 59 33 25 19 4 332 296 276 273 278
243 234 234 233 248 250 256 262 258 259 258 258 249 236 237 232 234 231 238 246 239 236 235 245 243 232 220 211 194 144 123 110 87 22 3 0 358 355 345 336 315 295 282
238 227 229 236 243 242 247 254 249 249 252 253 253 236 237 235 242 240 244 252 249 242 245 245 249 249 241 237 237 240 256 269 293 318 319 319 323 328 332 321 315 311 303
241 229 225 231 239 243 244 247 244 240 241 245 249 239 230 227 233 241 238 229 242 242 254 259 271 259 254 254 253 249 253 259 271 279 283 285 288 295 299 307 304 300 300
240 229 228 239 236 240 241 240 240 236 237 241 248 245 231 229 234 242 241 237 235 253 262 270 243 251 253 263 270 253 254 260 263 267 278 283 279 281 285 286 293 296 298
236 233 231 235 231 236 236 235 236 234 233 235 241 247 246 242 244 242 238 238 243 239 253 240 255 250 248 260 255 257 265 266 265 271 279 280 270 274 278 280 286 293 295
235 234 232 233 234 233 234 236 236 235 233 233 234 241 244 248 251 252 251 246 246 249 244 257 249 252 256 262 263 258 260 269 287 302 296 287 275 278 275 277 284 291 294
235 235 234 232 233 234 235 236 238 237 233 231 232 237 241 244 247 251 251 252 247 247 242 250 248 249 251 260 251 249 250 253 287 308 319 301 282 276 273 278 285 288 290
235 234 236 235 233 234 235 235 236 238 237 235 235 237 240 243 245 249 249 251 249 246 246 242 242 249 252 257 251 258 261 276 295 309 320 309 285 279 280 284 288 291 295
235 234 235 237 236 234 233 235 234 235 236 235 236 237 240 241 244 248 249 249 249 249 249 251 248 250 249 252 255 264 267 274 281 292 307 312 297 291 280 276 281 290 292
235 233 234 236 238 236 234 233 233 234 237 236 238 239 242 244 245 248 246 246 249 249 247 248 250 247 246 247 248 257 266 275 284 290 296 304 286 285 283 289 291 291 287
235 234 233 234 236 237 237 235 234 235 237 238 240 242 246 248 249 250 247 246 247 245 244 240 244 245 260 261 259 263 275 277 283 296 305 291 291 284 283 286 287 289 289
235 234 233 234 236 238 240 240 237 237 240 241 243 245 248 250 252 252 253 255 243 243 244 247 249 256 262 268 270 273 271 276 282 283 292 289 290 290 295 291 291 285 291
235 235 235 234 236 239 241 243 243 239 244 246 246 248 250 253 256 259 253 257 245 240 239 244 247 253 259 268 270 266 266 285 284 288 284 289 293 291 293 292 289 290 290
239 237 238 239 238 239 241 242 243 241 241 245 245 246 246 250 253 257 260 247 250 244 238 237 241 248 255 263 259 257 270 282 284 293 280 290 301 294 297 294 289 293 303
242 241 239 241 244 244 243 244 243 244 242 239 240 243 243 243 245 244 234 241 246 241 239 234 236 243 255 255 248 251 259 260 276 287 270 299 301 302 305 294 287 302 306